Regional Weather Roundup
Issued by NWS Little Rock, AR

Home | Current Version | Previous Version | Graphics & Text | Print | Product List | Glossary On
Versions: 1 2 3 4 5 6 7 8 9 10 11 12 13 14 15 16 17 18 19 20 21 22 23 24 25 26 27 28 29 30 31 32 33 34 35 36 37 38 39 40 41 42 43 44 45 46 47 48 49 50
000
ASUS44 KLZK 051605
RWRLZK

WEATHER ROUNDUP FOR ARKANSAS
NATIONAL WEATHER SERVICE LITTLE ROCK AR
1000 AM CST THU MAR 05 2015

NOTE: "FAIR" INDICATES FEW OR NO CLOUDS BELOW 12,000 FEET WITH NO
SIGNIFICANT WEATHER AND/OR OBSTRUCTIONS TO VISIBILITY.

ARZ001-003-010-029-051700-
NORTHWEST ARKANSAS

CITY           SKY/WX    TMP DP  RH WIND       PRES   REMARKS
FAYETTEVILLE   SUNNY     27  10  49 N6        30.54R WCI  20
FORT SMITH     SUNNY     30  11  45 N6        30.61R WCI  24
HARRISON       SUNNY     25  11  55 NW8       30.51R WCI  16
BENTONVILLE    SUNNY     27  10  50 N7        30.55S WCI  19
ROGERS         SUNNY     28  14  55 NW7       30.54R WCI  21
SILOAM SPGS    SUNNY     27  12  54 N9        30.56S WCI  17
HIGHFILL       SUNNY     28  13  53 N8        30.54R WCI  20
SPRINGDALE     SUNNY     25   9  50 NE12      30.56R WCI  14
$$

ARZ004-005-016-051700-
NORTH CENTRAL ARKANSAS

CITY           SKY/WX    TMP DP  RH WIND       PRES   REMARKS
BATESVILLE     SUNNY     28  12  50 NW5       30.54R WCI  23
FLIPPIN        SUNNY     27  10  50 CALM      30.53S
MTN HOME       SUNNY     27  11  51 NW10      30.52R WCI  17
$$

ARZ040-041-051700-
WEST CENTRAL ARKANSAS

CITY           SKY/WX    TMP DP  RH WIND       PRES   REMARKS
MENA           SUNNY     32  18  55 NE9       30.55R WCI  24
MOUNT IDA      SUNNY     30  16  56 VRB6      30.53R WCI  24
$$

ARZ009-017-025-026-028-051700-
NORTHEAST ARKANSAS

CITY           SKY/WX    TMP DP  RH WIND       PRES   REMARKS
CORNING        FAIR      25   9  50 NE6       30.54R WCI  18
JONESBORO      FLURRIES  26  10  50 N9        30.53R WCI  17
NEWPORT        SUNNY     26  12  55 N9        30.56R WCI  17
WALNUT RIDGE   SUNNY     25  10  54 N7        30.54R WCI  17
BLYTHEVILLE    PTSUNNY   24  17  74 N16       30.52R WCI  11
$$

ARZ022-023-033-042-044-051700-
CENTRAL ARKANSAS

CITY           SKY/WX    TMP DP  RH WIND       PRES   REMARKS
LITTLE ROCK    MOSUNNY   29  14  53 N12       30.57R WCI  19
N LITTLE ROCK  MOSUNNY   28  20  72 N12G21    30.57R WCI  18
HOT SPRINGS    SUNNY     30  16  56 VRB3      30.56R
RUSSELLVILLE   SUNNY     32  13  45 N6        30.56R WCI  26
CLINTON        FAIR      32   7  34 NW10G16   30.56R WCI  24
$$

ARZ036-051700-
EAST ARKANSAS

CITY           SKY/WX    TMP DP  RH WIND       PRES   REMARKS
WEST MEMPHIS   PTSUNNY   24  15  68 N13G24    30.51R WCI  12
$$

ARZ050-053-066-070-073-051700-
SOUTHWEST ARKANSAS

CITY           SKY/WX    TMP DP  RH WIND       PRES   REMARKS
ARKADELPHIA    FAIR      29  24  81 NE7       30.59R WCI  22
CAMDEN         PTSUNNY   28  19  69 CALM      30.58R
TEXARKANA      SUNNY     29  23  78 NE12      30.56S WCI  19
EL DORADO      CLOUDY    26  20  77 N12G24    30.55R WCI  16
DE QUEEN       SUNNY     32  17  54 N10       30.57R WCI  24
$$

ARZ056-057-069-051700-
SOUTHEAST ARKANSAS

CITY           SKY/WX    TMP DP  RH WIND       PRES   REMARKS
PINE BLUFF     PTSUNNY   25  14  63 N13       30.57R WCI  14
STUTTGART      PTSUNNY   27  16  63 N16       30.55R WCI  14
MONTICELLO     CLOUDY    27  17  66 N9G18     30.53R WCI  18

$$




USA.gov is the U.S. government's official web portal to all federal, state and local government web resources and services.